Fort Lewis, WA

9:39 AM PDT on July 26, 2017 (GMT -0700)
Gray Army Air Field

Weather History for KGRF - January, 2013

Change the Weather History Date:

Friday, January 4, 2013

  Actual Average Record
Temperature  
Mean Temperature 42 °F -  
Max Temperature 48 °F 44 °F 59 °F (2001)
Min Temperature 35 °F 33 °F 15 °F (2004)
Degree Days  
Heating Degree Days 24    
Moisture  
Dew Point 40 °F    
Average Humidity 95    
Maximum Humidity 100    
Minimum Humidity 79    
Precipitation  
Precipitation 0.00 in - - ()
Sea Level Pressure  
Sea Level Pressure 30.23 in    
Wind  
Wind Speed 4 mph (SE)    
Max Wind Speed 9 mph    
Max Gust Speed -    
Visibility 9 miles    
Events Rain    
Averages and records for this station are not official NWS values.
T = Trace of Precipitation, MM = Missing Value Source: NWS Daily Summary

Daily Weather History Graph

Daily Weather History Graph

Search for Another Location

Airport or City:

Trip Planner

Search our weather history database for the weather conditions in past years. The results will help you decide how hot, cold, wet, or windy it might be!

Date:

Astronomy

Jan. 04, 2013 Rise Set
Actual Time 7:56 AM PST 4:35 PM PST
Civil Twilight 7:21 AM PST 5:10 PM PST
Nautical Twilight 6:42 AM PST 5:48 PM PST
Astronomical Twilight 6:05 AM PST 6:25 PM PST
Moon No Moon Rise 11:11 AM PST (1/4)
Length of Visible Light 9h 49m
Length of Day
8h 38m
Waning Gibbous, 54% of the Moon is Illuminated
Jan 4
Waning Gibbous
Jan 4
Last Quarter
Jan 11
New
Jan 18
First Quarter
Jan 26
Full

Hourly Weather History & Observations

Time (PST) Temp. Windchill Dew Point Humidity Pressure Visibility Wind Dir Wind Speed Gust Speed Precip Events Conditions
12:08 AM 35.6 °F - 35.6 °F 100% 30.16 in 6.0 mi Variable 1.2 mph - N/A   Overcast
12:58 AM 35.8 °F 33.0 °F 35.4 °F 99% 30.19 in 5.0 mi ENE 3.5 mph - 0.00 in   Overcast
1:58 AM 35.2 °F 32.4 °F 35.1 °F 99% 30.22 in 10.0 mi SSE 3.5 mph - N/A   Overcast
2:58 AM 35.8 °F - 35.6 °F 99% 30.24 in 10.0 mi ESE 2.3 mph - N/A   Overcast
3:09 AM 37.4 °F 34.9 °F 37.4 °F 100% 30.22 in 9.0 mi SE 3.5 mph - N/A Rain Light Rain
3:21 AM 37.4 °F 33.8 °F 37.4 °F 100% 30.23 in 10.0 mi SE 4.6 mph - N/A   Overcast
3:36 AM 37.4 °F 33.8 °F 37.4 °F 100% 30.22 in 10.0 mi SE 4.6 mph - N/A   Overcast
3:46 AM 39.2 °F 35.0 °F 39.2 °F 100% 30.23 in 10.0 mi SE 5.8 mph - N/A   Overcast
3:58 AM 39.4 °F 35.2 °F 39.2 °F 99% 30.25 in 10.0 mi SE 5.8 mph - 0.00 in   Overcast
4:00 AM 39.2 °F 35.0 °F 39.2 °F 100% 30.23 in 10.0 mi SE 5.8 mph - N/A   Overcast
4:55 AM 39.2 °F 35.9 °F 39.2 °F 100% 30.23 in 10.0 mi SE 4.6 mph - N/A   Overcast
4:58 AM 38.8 °F 34.6 °F 38.5 °F 99% 30.25 in 10.0 mi SE 5.8 mph - 0.00 in   Overcast
5:58 AM 41.2 °F 39.2 °F 41.0 °F 99% 30.26 in 10.0 mi SSE 3.5 mph - N/A   Overcast
6:58 AM 39.6 °F 37.4 °F 39.2 °F 99% 30.28 in 10.0 mi SSE 3.5 mph - N/A   Overcast
7:58 AM 41.9 °F 38.2 °F 41.7 °F 99% 30.29 in 10.0 mi South 5.8 mph - N/A   Overcast
8:58 AM 44.6 °F 39.7 °F 42.8 °F 93% 30.32 in 10.0 mi SSW 9.2 mph - N/A   Overcast
9:58 AM 44.2 °F 41.8 °F 43.2 °F 96% 30.33 in 10.0 mi South 4.6 mph - N/A   Overcast
10:38 AM 46.4 °F 42.4 °F 42.8 °F 87% 30.31 in 10.0 mi South 8.1 mph - N/A   Scattered Clouds
10:58 AM 46.4 °F 43.5 °F 43.0 °F 88% 30.33 in 10.0 mi South 5.8 mph - N/A   Clear
11:28 AM 48.2 °F - 42.8 °F 82% 30.30 in 10.0 mi Variable 5.8 mph - N/A   Mostly Cloudy
11:33 AM 48.2 °F - 42.8 °F 82% 30.29 in 10.0 mi Variable 3.5 mph - N/A   Mostly Cloudy
11:58 AM 47.7 °F - 42.3 °F 82% 30.31 in 10.0 mi South 8.1 mph - N/A   Overcast
12:03 PM 48.2 °F - 42.8 °F 82% 30.28 in 10.0 mi South 8.1 mph - N/A   Overcast
12:43 PM 48.2 °F - 42.8 °F 82% 30.27 in 10.0 mi WSW 5.8 mph - N/A   Mostly Cloudy
12:58 PM 48.7 °F - 42.4 °F 79% 30.28 in 10.0 mi SW 6.9 mph - N/A   Partly Cloudy
1:58 PM 47.8 °F - 42.6 °F 82% 30.27 in 10.0 mi West 4.6 mph - N/A   Mostly Cloudy
2:58 PM 47.5 °F - 43.2 °F 85% 30.26 in 10.0 mi North 5.8 mph - N/A   Mostly Cloudy
3:58 PM 46.9 °F - 42.8 °F 86% 30.25 in 10.0 mi NNW 3.5 mph - N/A   Mostly Cloudy
4:58 PM 44.8 °F - 42.8 °F 93% 30.23 in 10.0 mi NNE 2.3 mph - N/A   Mostly Cloudy
5:58 PM 43.2 °F 41.5 °F 42.6 °F 98% 30.22 in 10.0 mi West 3.5 mph - N/A   Mostly Cloudy
6:58 PM 40.8 °F - 40.5 °F 99% 30.21 in 10.0 mi Calm Calm - N/A   Overcast
7:03 PM 41.0 °F - 41.0 °F 100% 30.19 in 5.0 mi Calm Calm - N/A   Overcast
7:18 PM 41.0 °F - 41.0 °F 100% 30.18 in 10.0 mi ENE 2.3 mph - N/A   Overcast
7:58 PM 39.9 °F 37.8 °F 39.6 °F 99% 30.21 in 7.0 mi SSE 3.5 mph - N/A   Mostly Cloudy
8:08 PM 39.2 °F 35.9 °F 39.2 °F 100% 30.19 in 2.0 mi SE 4.6 mph - N/A   Scattered Clouds
8:13 PM 39.2 °F 37.0 °F 37.4 °F 93% 30.19 in 1.2 mi SE 3.5 mph - N/A   Scattered Clouds
8:18 PM 39.2 °F 37.0 °F 39.2 °F 100% 30.19 in 2.0 mi SE 3.5 mph - N/A   Mostly Cloudy
8:23 PM 39.2 °F - 39.2 °F 100% 30.18 in 3.0 mi East 2.3 mph - N/A   Scattered Clouds
8:33 PM 39.2 °F - 39.2 °F 100% 30.18 in 7.0 mi NNE 2.3 mph - N/A   Mostly Cloudy
8:38 PM 39.2 °F - 39.2 °F 100% 30.17 in 10.0 mi NE 2.3 mph - N/A   Mostly Cloudy
8:58 PM 38.7 °F - 38.5 °F 99% 30.19 in 10.0 mi East 1.2 mph - N/A   Overcast
9:03 PM 37.4 °F - 37.4 °F 100% 30.17 in 9.0 mi SE 2.3 mph - N/A   Overcast
9:23 PM 37.4 °F - 37.4 °F 100% 30.17 in 10.0 mi ENE 1.2 mph - N/A   Overcast
9:58 PM 38.5 °F - 38.3 °F 99% 30.19 in 6.0 mi South 1.2 mph - N/A   Overcast
10:58 PM 38.3 °F - 37.9 °F 99% 30.18 in 10.0 mi Calm Calm - N/A   Overcast
11:55 PM 39.2 °F - 39.2 °F 100% 30.16 in 10.0 mi Calm Calm - N/A   Overcast
11:58 PM 38.7 °F - 38.5 °F 99% 30.18 in 10.0 mi ENE 1.2 mph - N/A   Overcast